29 min.
Landingsbaan Tegenwind Zijwind Lengte
10/28 305 m
METAR ETWM 031320Z AUTO 16001KT //// // ////// 20/08 Q1013 ///

METAR uitleg | Integreren

METAR Flugplatz Dankern

Dit veld bevindt zich in Duitsland. Het vliegveld heeft één landingsbaan: 10/28 (305 m)

Flugplatz Dankern heeft geen recente waarnemingen gepubliceerd, daarom laten we je het rapport zien van Meppen Air Base, dat 14 km verderop ligt. Dit rapport is opgesteld op 3 augustus 2021 15:20, lokale tijd.

Vliegveldwaarnemingen

De wind staat vanuit de richting zuidzuidoost (160°) met een snelheid van 1 kt.

De temperatuur en gevoelstemperatuur zijn 20 °C. Het dauwpunt is 8 °C, dus is de relatieve luchtvochtigheid 46%. De luchtdruk op zeeniveau is 1013 hPa (QNH).

Daglichtperiode

De zon komt vandaag op om 05:53 en gaat onder om 21:21. Dit geldt voor Flugplatz Dankern, de universele daglichtperiode kan anders zijn. Het verschil tussen de lokale tijd en UTC is +2 uur. Op dit moment is er sprake van zomertijd.

Historische gegevens

Doneren

Help je mee om Metar-Taf.com draaiend te houden?
Jouw bijdrage helpt om de site verder te ontwikkelen en om de kosten te betalen.

Nooit meer advertenties

Doneer je € 5 of meer? Dan laten we je nooit meer advertenties zien, als blijk van onze eeuwige dankbaarheid!
Log wel even in voordat je doneert

Wil je het vliegweer van Flugplatz Dankern op jouw website? Meer info   Gratis!